sat.trackr.live / text

‹ back to catalog

STARLINK-3548

NORAD 51864 · 2022-022N

PAYLOAD ACTIVE UNKNOWN

§ Identity

Operator
Country
US
Launch date
2022-03-03
Launch site
AFETR
Launch vehicle
Mass (kg)
RCS (m²)

Purposes: comms

External: N2YO · Heavens-Above · Gunter

§ Orbital elements

Epoch: 2026-09-20T03:15:24.009984Z

Period
93.85 min
Inclination
53.1608°
Eccentricity
0.0001539
Mean motion
15.34377234 rev/d
Perigee alt
461.7 km
Apogee alt
463.8 km
Semi-major
6,840.9 km
B*
1.7118e-4
RAAN
205.0779°
Arg perigee
121.5939°
Mean anomaly
238.5214°
Rev number
25,266

§ Raw data

STARLINK-35481 51864U 22022N   26263.13569456  .00005407  00000+0  17118-3 0  99962 51864  53.1608 205.0779 0001539 121.5939 238.5214 15.34377234252662

JSON: /api/v1/satellites/51864 · /tle

For live sub-satellite position, see the globe view (requires WebGL).

§ Visibility from observer

Set your observer location to see the next 7 days of passes ≥ 10°. The values pass through the URL so the page stays shareable.

No JS? Fill the form by hand. The geolocation button needs JavaScript.